Track INTELSAT 10 (PAS 10) now! INTELSAT 10 (PAS 10) is classified as:
1 26766U 01019A 24325.88011471 -.00000006 00000-0 00000+0 0 9990 2 26766 7.7009 65.0879 0004346 188.0985 190.1241 1.00271564 86180